LHA524 KMFR-KRNT

Flight info

Callsign LHA524
Flight time 0h 56m
Altitude 38000
Route OED V595 CUTTR DCT RENAA DCT BTG
Aircraft A320/M-SDE1E2FGIJ1RWYZ/LB1

Departure

Time 2026-04-25 15:57
Airport Rogue Valley International-Medford Airport (KMFR)

Arrival

Time 2026-04-25 16:54
Airport Renton Municipal Airport (KRNT)
Time Latitude Longitude Altitude Speed Heading
2026-04-25 15:40 42.37008 -122.87409 1331 ft 0 kts 250°
2026-04-25 15:50 42.37011 -122.87398 1331 ft 4 kts 248°
2026-04-25 15:51 42.37023 -122.87367 1334 ft 4 kts 222°
2026-04-25 15:51 42.37037 -122.87355 1333 ft 4 kts 182°
2026-04-25 15:51 42.37045 -122.87355 1333 ft 0 kts 164°
2026-04-25 15:53 42.37043 -122.87354 1330 ft 1 kts 164°
2026-04-25 15:53 42.37034 -122.87344 1331 ft 3 kts 135°
2026-04-25 15:54 42.37033 -122.87301 1331 ft 6 kts 85°
2026-04-25 15:54 42.37019 -122.87242 1334 ft 8 kts 137°
2026-04-25 15:54 42.36964 -122.87211 1332 ft 9 kts 159°
2026-04-25 15:54 42.36897 -122.87176 1334 ft 11 kts 159°
2026-04-25 15:55 42.36819 -122.87135 1335 ft 13 kts 159°
2026-04-25 15:55 42.36727 -122.87087 1336 ft 15 kts 159°
2026-04-25 15:55 42.36622 -122.87033 1338 ft 17 kts 159°
2026-04-25 15:55 42.36507 -122.86976 1341 ft 19 kts 160°
2026-04-25 15:56 42.36389 -122.86917 1345 ft 15 kts 158°
2026-04-25 15:56 42.36351 -122.86854 1345 ft 10 kts 88°
2026-04-25 15:56 42.36382 -122.86769 1346 ft 10 kts 35°
2026-04-25 15:56 42.36461 -122.86791 1340 ft 16 kts 340°
2026-04-25 15:57 42.36729 -122.86930 1336 ft 77 kts 339°
2026-04-25 15:57 42.37427 -122.87295 1325 ft 136 kts 339°
2026-04-25 15:57 42.38381 -122.87796 1688 ft 147 kts 339°
2026-04-25 15:57 42.39326 -122.88334 2308 ft 147 kts 336°
2026-04-25 15:58 42.40287 -122.88814 2906 ft 147 kts 346°
2026-04-25 15:58 42.41251 -122.89137 3477 ft 144 kts 346°
2026-04-25 15:58 42.42293 -122.89479 3736 ft 164 kts 346°
2026-04-25 15:58 42.43511 -122.89874 3892 ft 194 kts 346°
2026-04-25 15:59 42.44907 -122.90322 4197 ft 218 kts 346°
2026-04-25 15:59 42.46472 -122.90817 4586 ft 243 kts 348°
2026-04-25 15:59 42.48231 -122.90780 5124 ft 264 kts 15°
2026-04-25 15:59 42.49892 -122.89644 6002 ft 271 kts 32°
2026-04-25 16:00 42.51485 -122.88244 6928 ft 275 kts 32°
2026-04-25 16:00 42.52027 -122.87767 7230 ft 276 kts 32°
2026-04-25 16:00 42.54735 -122.85377 8736 ft 282 kts 31°
2026-04-25 16:00 42.56384 -122.83924 9664 ft 284 kts 30°
2026-04-25 16:01 42.58060 -122.82450 10414 ft 291 kts 30°
2026-04-25 16:01 42.59799 -122.80926 11033 ft 303 kts 30°
2026-04-25 16:01 42.61598 -122.79345 11668 ft 313 kts 30°
2026-04-25 16:01 42.63452 -122.77714 12308 ft 322 kts 30°
2026-04-25 16:02 42.65352 -122.76038 12961 ft 330 kts 30°
2026-04-25 16:02 42.67301 -122.74318 13637 ft 338 kts 29°
2026-04-25 16:02 42.69380 -122.72790 14239 ft 343 kts 19°
2026-04-25 16:02 42.71646 -122.71732 14847 ft 346 kts 13°
2026-04-25 16:03 42.73932 -122.70783 15458 ft 351 kts 13°
2026-04-25 16:03 42.76277 -122.69807 16084 ft 355 kts 13°
2026-04-25 16:03 42.78659 -122.68815 16718 ft 360 kts 13°
2026-04-25 16:03 42.81081 -122.67802 17250 ft 368 kts 13°
2026-04-25 16:04 42.83553 -122.66768 17791 ft 375 kts 13°
2026-04-25 16:04 42.86066 -122.65716 18317 ft 382 kts 13°
2026-04-25 16:04 42.88635 -122.64644 18793 ft 389 kts 13°
2026-04-25 16:04 42.91247 -122.63552 19282 ft 396 kts 13°
2026-04-25 16:05 42.93900 -122.62434 19778 ft 402 kts 13°
2026-04-25 16:05 42.96591 -122.61301 20282 ft 406 kts 12°
2026-04-25 16:05 43.02042 -122.59010 21281 ft 413 kts 12°
2026-04-25 16:06 43.04798 -122.57845 21781 ft 415 kts 12°
2026-04-25 16:06 43.07565 -122.56675 22275 ft 417 kts 12°
2026-04-25 16:06 43.10350 -122.55495 22752 ft 419 kts 12°
2026-04-25 16:06 43.13136 -122.54314 23201 ft 421 kts 12°
2026-04-25 16:07 43.15944 -122.53125 23630 ft 423 kts 12°
2026-04-25 16:07 43.16887 -122.52725 23753 ft 423 kts 12°
2026-04-25 16:07 43.21586 -122.50733 24373 ft 426 kts 12°
2026-04-25 16:07 43.24426 -122.49529 24749 ft 428 kts 12°
2026-04-25 16:08 43.27279 -122.48319 25135 ft 430 kts 12°
2026-04-25 16:08 43.30138 -122.47102 25476 ft 432 kts 12°
2026-04-25 16:08 43.33009 -122.45878 25826 ft 433 kts 12°
2026-04-25 16:08 43.35893 -122.44646 26171 ft 435 kts 12°
2026-04-25 16:09 43.38796 -122.43405 26492 ft 438 kts 12°
2026-04-25 16:09 43.41712 -122.42179 26816 ft 437 kts
2026-04-25 16:09 43.44677 -122.41438 27232 ft 430 kts
2026-04-25 16:09 43.47636 -122.41359 27718 ft 423 kts 352°
2026-04-25 16:10 43.50578 -122.41580 28240 ft 421 kts 352°
2026-04-25 16:10 43.53495 -122.41799 28765 ft 419 kts 352°
2026-04-25 16:10 43.56397 -122.42019 29285 ft 417 kts 352°
2026-04-25 16:10 43.59246 -122.42234 29834 ft 415 kts 352°
2026-04-25 16:11 43.62116 -122.42451 30316 ft 413 kts 352°
2026-04-25 16:11 43.65021 -122.42677 30744 ft 412 kts 352°
2026-04-25 16:11 43.67843 -122.42900 31151 ft 411 kts 352°
2026-04-25 16:11 43.70699 -122.43123 31566 ft 411 kts 352°
2026-04-25 16:12 43.73557 -122.43346 31983 ft 411 kts 352°
2026-04-25 16:12 43.76408 -122.43567 32402 ft 411 kts 352°
2026-04-25 16:12 43.79266 -122.43786 32817 ft 411 kts 352°
2026-04-25 16:12 43.80225 -122.43859 32963 ft 411 kts 352°
2026-04-25 16:13 43.84965 -122.44217 33649 ft 411 kts 352°
2026-04-25 16:13 43.87819 -122.44433 34043 ft 411 kts 352°
2026-04-25 16:13 43.90676 -122.44650 34363 ft 411 kts 352°
2026-04-25 16:13 43.93543 -122.44872 34677 ft 413 kts 352°
2026-04-25 16:14 43.96406 -122.45095 34976 ft 414 kts 352°
2026-04-25 16:14 43.99294 -122.45320 35262 ft 415 kts 353°
2026-04-25 16:14 44.02186 -122.45545 35535 ft 417 kts 353°
2026-04-25 16:14 44.05084 -122.45762 35805 ft 418 kts 353°
2026-04-25 16:15 44.07999 -122.45979 36078 ft 420 kts 353°
2026-04-25 16:15 44.10914 -122.46199 36343 ft 421 kts 353°
2026-04-25 16:15 44.13842 -122.46423 36610 ft 422 kts 354°
2026-04-25 16:15 44.16785 -122.46648 36879 ft 423 kts 354°
2026-04-25 16:16 44.19722 -122.46875 37143 ft 424 kts 354°
2026-04-25 16:16 44.22637 -122.47101 37407 ft 425 kts 354°
2026-04-25 16:16 44.25632 -122.47334 37664 ft 426 kts 354°
2026-04-25 16:16 44.28597 -122.47568 37887 ft 427 kts 354°
2026-04-25 16:17 44.31564 -122.47803 37932 ft 428 kts 354°
2026-04-25 16:17 44.37470 -122.48262 37929 ft 428 kts 355°
2026-04-25 16:18 44.43413 -122.48711 37937 ft 427 kts 355°
2026-04-25 16:18 44.49353 -122.49167 37935 ft 427 kts 355°
2026-04-25 16:19 44.55298 -122.49622 37940 ft 427 kts 355°
2026-04-25 16:19 44.61238 -122.50074 37944 ft 428 kts 355°
2026-04-25 16:20 44.70151 -122.50784 37954 ft 428 kts 355°
2026-04-25 16:21 44.79062 -122.51478 37958 ft 427 kts 355°
2026-04-25 16:21 44.84965 -122.51941 37959 ft 427 kts 355°
2026-04-25 16:22 44.90898 -122.52431 37967 ft 427 kts 355°
2026-04-25 16:22 44.96829 -122.52905 37967 ft 427 kts 355°
2026-04-25 16:23 45.02760 -122.53377 37975 ft 427 kts 355°
2026-04-25 16:23 45.08684 -122.53849 37977 ft 427 kts 355°
2026-04-25 16:24 45.14613 -122.54322 37987 ft 426 kts 355°
2026-04-25 16:24 45.20539 -122.54789 37983 ft 426 kts 355°
2026-04-25 16:25 45.26460 -122.55260 37991 ft 426 kts 355°
2026-04-25 16:25 45.31384 -122.55659 37988 ft 426 kts 355°
2026-04-25 16:25 45.34346 -122.55900 37807 ft 426 kts 355°
2026-04-25 16:26 45.37306 -122.56139 37619 ft 426 kts 355°
2026-04-25 16:26 45.40262 -122.56374 37441 ft 425 kts 355°
2026-04-25 16:26 45.43211 -122.56609 37280 ft 424 kts 355°
2026-04-25 16:26 45.46162 -122.56846 37077 ft 424 kts 355°
2026-04-25 16:27 45.49109 -122.57083 36904 ft 423 kts 355°
2026-04-25 16:27 45.52042 -122.57319 36726 ft 423 kts 355°
2026-04-25 16:27 45.54978 -122.57556 36548 ft 422 kts 355°
2026-04-25 16:27 45.57903 -122.57793 36367 ft 421 kts 355°
2026-04-25 16:28 45.60831 -122.58032 36185 ft 421 kts 355°
2026-04-25 16:28 45.63758 -122.58271 35846 ft 420 kts 355°
2026-04-25 16:28 45.66667 -122.58505 35514 ft 419 kts 355°
2026-04-25 16:28 45.69571 -122.58736 35172 ft 417 kts 355°
2026-04-25 16:29 45.72431 -122.58966 34840 ft 416 kts 355°
2026-04-25 16:29 45.75305 -122.59294 34516 ft 414 kts 350°
2026-04-25 16:29 45.78140 -122.59986 34190 ft 412 kts 349°
2026-04-25 16:29 45.80963 -122.60693 33814 ft 411 kts 349°
2026-04-25 16:30 45.83775 -122.61399 33431 ft 411 kts 349°
2026-04-25 16:30 45.86606 -122.62105 33055 ft 412 kts 349°
2026-04-25 16:30 45.89428 -122.62807 32655 ft 413 kts 349°
2026-04-25 16:30 45.92261 -122.63512 32127 ft 413 kts 349°
2026-04-25 16:31 45.95088 -122.64217 31617 ft 414 kts 349°
2026-04-25 16:31 45.97931 -122.64929 31124 ft 415 kts 349°
2026-04-25 16:31 46.00776 -122.65641 30631 ft 416 kts 349°
2026-04-25 16:31 46.03623 -122.66354 30134 ft 416 kts 349°
2026-04-25 16:32 46.06482 -122.67070 29566 ft 415 kts 349°
2026-04-25 16:32 46.09318 -122.67779 28994 ft 412 kts 349°
2026-04-25 16:32 46.12127 -122.68478 28441 ft 408 kts 349°
2026-04-25 16:32 46.14907 -122.69174 27886 ft 404 kts 350°
2026-04-25 16:33 46.17683 -122.69874 27337 ft 404 kts 350°
2026-04-25 16:33 46.20448 -122.70572 26823 ft 402 kts 350°
2026-04-25 16:33 46.23198 -122.71263 26306 ft 400 kts 350°
2026-04-25 16:33 46.25922 -122.71949 25792 ft 396 kts 350°
2026-04-25 16:34 46.28622 -122.72636 25294 ft 393 kts 350°
2026-04-25 16:34 46.31300 -122.73322 24808 ft 389 kts 350°
2026-04-25 16:34 46.33956 -122.73999 24326 ft 386 kts 351°
2026-04-25 16:34 46.36592 -122.74665 23846 ft 383 kts 351°
2026-04-25 16:35 46.39209 -122.75324 23331 ft 380 kts 351°
2026-04-25 16:35 46.41798 -122.75977 22776 ft 377 kts 351°
2026-04-25 16:35 46.44372 -122.76630 22231 ft 374 kts 351°
2026-04-25 16:35 46.46930 -122.77283 21689 ft 371 kts 351°
2026-04-25 16:36 46.49461 -122.77932 21164 ft 368 kts 351°
2026-04-25 16:36 46.50281 -122.78142 20996 ft 367 kts 351°
2026-04-25 16:36 46.54466 -122.79212 20139 ft 362 kts 351°
2026-04-25 16:36 46.56940 -122.79843 19630 ft 359 kts 351°
2026-04-25 16:37 46.59362 -122.80463 19151 ft 356 kts 350°
2026-04-25 16:37 46.61794 -122.81087 18668 ft 354 kts 350°
2026-04-25 16:37 46.64210 -122.81705 18174 ft 351 kts 350°
2026-04-25 16:37 46.66598 -122.82316 17617 ft 348 kts 351°
2026-04-25 16:38 46.68972 -122.82922 17088 ft 345 kts 351°
2026-04-25 16:38 46.71328 -122.83525 16556 ft 342 kts 351°
2026-04-25 16:38 46.73663 -122.84127 16037 ft 340 kts 351°
2026-04-25 16:38 46.75988 -122.84726 15523 ft 338 kts 351°
2026-04-25 16:39 46.78294 -122.85320 15021 ft 336 kts 351°
2026-04-25 16:39 46.80591 -122.85910 14530 ft 334 kts 351°
2026-04-25 16:39 46.82871 -122.86496 14047 ft 332 kts 351°
2026-04-25 16:39 46.85139 -122.87082 13538 ft 330 kts 351°
2026-04-25 16:40 46.87390 -122.87666 13089 ft 327 kts 351°
2026-04-25 16:40 46.89606 -122.88243 12984 ft 315 kts 351°
2026-04-25 16:40 46.91702 -122.88791 13002 ft 297 kts 351°
2026-04-25 16:40 46.93689 -122.89169 13004 ft 279 kts 359°
2026-04-25 16:41 46.95590 -122.89019 13005 ft 271 kts
2026-04-25 16:41 46.96813 -122.88648 13005 ft 271 kts 14°
2026-04-25 16:41 47.00714 -122.85679 13005 ft 275 kts 37°
2026-04-25 16:42 47.02155 -122.83832 13008 ft 275 kts 37°
2026-04-25 16:42 47.03580 -122.82013 13008 ft 275 kts 37°
2026-04-25 16:42 47.05027 -122.80173 13006 ft 275 kts 37°
2026-04-25 16:42 47.06471 -122.78336 12799 ft 274 kts 37°
2026-04-25 16:43 47.07907 -122.76504 12560 ft 273 kts 38°
2026-04-25 16:43 47.09336 -122.74684 12352 ft 272 kts 38°
2026-04-25 16:43 47.10759 -122.72866 12141 ft 271 kts 38°
2026-04-25 16:43 47.12178 -122.71048 11921 ft 270 kts 38°
2026-04-25 16:44 47.13592 -122.69237 11723 ft 269 kts 38°
2026-04-25 16:44 47.14996 -122.67439 11519 ft 268 kts 38°
2026-04-25 16:44 47.16402 -122.65640 11325 ft 267 kts 38°
2026-04-25 16:44 47.17800 -122.63847 11140 ft 266 kts 38°
2026-04-25 16:45 47.19191 -122.62060 10941 ft 265 kts 39°
2026-04-25 16:45 47.20578 -122.60276 10739 ft 265 kts 39°
2026-04-25 16:45 47.21961 -122.58501 10544 ft 264 kts 39°
2026-04-25 16:45 47.23343 -122.56727 10343 ft 263 kts 39°
2026-04-25 16:46 47.24716 -122.54961 10146 ft 262 kts 39°
2026-04-25 16:46 47.26082 -122.53197 9908 ft 261 kts 39°
2026-04-25 16:46 47.27442 -122.51438 9589 ft 259 kts 39°
2026-04-25 16:46 47.28338 -122.50279 9363 ft 258 kts 39°
2026-04-25 16:47 47.30084 -122.47852 8800 ft 262 kts 52°
2026-04-25 16:47 47.30827 -122.45373 8330 ft 269 kts 70°
2026-04-25 16:47 47.31251 -122.42691 7870 ft 274 kts 76°
2026-04-25 16:47 47.31563 -122.39878 7398 ft 276 kts 78°
2026-04-25 16:48 47.31831 -122.37139 6940 ft 268 kts 78°
2026-04-25 16:48 47.32097 -122.34458 6492 ft 263 kts 78°
2026-04-25 16:48 47.32380 -122.31817 6018 ft 258 kts 77°
2026-04-25 16:48 47.32674 -122.29241 5573 ft 251 kts 77°
2026-04-25 16:49 47.32966 -122.26767 5263 ft 240 kts 77°
2026-04-25 16:49 47.33253 -122.24387 4948 ft 230 kts 77°
2026-04-25 16:49 47.33528 -122.22114 4646 ft 221 kts 77°
2026-04-25 16:49 47.33795 -122.19924 4322 ft 213 kts 77°
2026-04-25 16:50 47.34194 -122.17899 4030 ft 201 kts 56°
2026-04-25 16:50 47.35135 -122.16499 3771 ft 189 kts 29°
2026-04-25 16:50 47.36360 -122.15987 3451 ft 183 kts
2026-04-25 16:50 47.37582 -122.16388 3085 ft 183 kts 336°
2026-04-25 16:51 47.38688 -122.17338 2700 ft 182 kts 333°
2026-04-25 16:51 47.39750 -122.18262 2304 ft 172 kts 332°
2026-04-25 16:51 47.40749 -122.19128 1936 ft 158 kts 333°
2026-04-25 16:51 47.41361 -122.19657 1715 ft 148 kts 331°
2026-04-25 16:52 47.42520 -122.20488 1394 ft 132 kts 346°
2026-04-25 16:52 47.43415 -122.20693 1188 ft 129 kts 355°
2026-04-25 16:52 47.44309 -122.20828 995 ft 129 kts 355°
2026-04-25 16:52 47.45197 -122.20964 816 ft 131 kts 354°
2026-04-25 16:53 47.47029 -122.21242 458 ft 132 kts 354°
2026-04-25 16:53 47.47924 -122.21376 261 ft 130 kts 354°
2026-04-25 16:53 47.48824 -122.21501 51 ft 126 kts 355°
2026-04-25 16:54 47.49571 -122.21612 31 ft 85 kts 354°
2026-04-25 16:54 47.49929 -122.21667 32 ft 17 kts 354°
2026-04-25 16:54 47.50025 -122.21665 36 ft 8 kts 328°
2026-04-25 16:54 47.50012 -122.21754 35 ft 12 kts 253°
2026-04-25 16:55 47.49928 -122.21792 32 ft 15 kts 174°
2026-04-25 16:55 47.49819 -122.21779 30 ft 17 kts 175°
2026-04-25 16:55 47.49696 -122.21758 31 ft 18 kts 173°
2026-04-25 16:55 47.49585 -122.21741 29 ft 12 kts 174°
2026-04-25 16:56 47.49520 -122.21745 30 ft 7 kts 215°
2026-04-25 16:56 47.49510 -122.21804 31 ft 2 kts 264°
2026-04-25 16:56 47.49509 -122.21806 31 ft 0 kts 264°